TimePST,TemperatureF,Dew PointF,Humidity,Sea Level PressureIn,VisibilityMPH,Wind Direction,Wind SpeedMPH,Gust SpeedMPH,PrecipitationIn,Events,Conditions,WindDirDegrees,DateUTC
12:58 AM,45.1,11.8,26,30.41,10.0,NNW,4.6,-,N/A,,Clear,340,2013-03-01 08:58:00
1:58 AM,44.8,12.2,27,30.41,10.0,Calm,Calm,-,N/A,,Clear,0,2013-03-01 09:58:00
2:58 AM,42.1,11.8,29,30.40,10.0,North,3.5,-,N/A,,Clear,360,2013-03-01 10:58:00
3:58 AM,40.8,12.4,31,30.41,10.0,East,2.3,-,N/A,,Clear,100,2013-03-01 11:58:00
4:58 AM,39.9,12.6,33,30.43,10.0,ENE,2.3,-,N/A,,Clear,60,2013-03-01 12:58:00
5:58 AM,40.5,13.1,33,30.43,10.0,NNW,3.5,-,N/A,,Clear,340,2013-03-01 13:58:00
6:58 AM,39.9,14.0,35,30.45,10.0,East,5.8,-,N/A,,Clear,80,2013-03-01 14:58:00
7:58 AM,47.8,15.4,27,30.47,10.0,WSW,3.5,-,N/A,,Clear,240,2013-03-01 15:58:00
8:58 AM,53.4,16.7,24,30.45,10.0,West,3.5,-,N/A,,Clear,260,2013-03-01 16:58:00
9:58 AM,57.9,18.1,21,30.43,10.0,Calm,Calm,-,N/A,,Clear,0,2013-03-01 17:58:00
10:58 AM,64.9,21.6,19,30.41,10.0,WNW,2.3,-,N/A,,Clear,300,2013-03-01 18:58:00
11:58 AM,67.8,23.2,18,30.36,10.0,Variable,4.6,-,N/A,,Clear,0,2013-03-01 19:58:00
12:58 PM,70.5,25.5,19,30.32,10.0,Variable,4.6,-,N/A,,Clear,0,2013-03-01 20:58:00
1:58 PM,72.0,25.2,17,30.29,10.0,Calm,Calm,-,N/A,,Clear,0,2013-03-01 21:58:00
2:58 PM,72.7,24.4,16,30.29,10.0,Calm,Calm,-,N/A,,Clear,0,2013-03-01 22:58:00
3:58 PM,72.7,24.4,16,30.27,10.0,SW,2.3,-,N/A,,Clear,220,2013-03-01 23:58:00
4:58 PM,72.5,24.3,16,30.27,10.0,WSW,1.2,-,N/A,,Clear,240,2013-03-02 00:58:00
5:58 PM,69.1,25.5,19,30.27,10.0,South,3.5,-,N/A,,Clear,190,2013-03-02 01:58:00
6:58 PM,61.0,25.0,25,30.28,10.0,NE,8.1,-,N/A,,Clear,40,2013-03-02 02:58:00
7:58 PM,57.2,23.7,28,30.28,10.0,Calm,Calm,-,N/A,,Clear,0,2013-03-02 03:58:00
8:58 PM,55.0,23.5,30,30.30,10.0,Calm,Calm,-,N/A,,Clear,0,2013-03-02 04:58:00
9:58 PM,56.5,25.3,30,30.30,10.0,Calm,Calm,-,N/A,,Clear,0,2013-03-02 05:58:00
10:58 PM,54.1,25.9,34,30.30,10.0,NNE,3.5,-,N/A,,Clear,30,2013-03-02 06:58:00
11:58 PM,53.2,26.4,35,30.31,10.0,NNE,2.3,-,N/A,,Clear,30,2013-03-02 07:58:00